Location: Dunedin
(45.8670°S, 170.5000°E)
Time: 11:17:36
(UTC+13:00)

Daily predictions for brighter satellites

Satellite Brightness Start Highest point End
(mag) Time Altitude Azimuth Time Altitude Azimuth Time Altitude Azimuth
Meteor 2-10 Rocket 4.1 20:40:38 10° SSW 20:46:33 75° W 20:52:15 10° N
CZ-2D R/B 4.0 20:46:46 10° SSE 20:50:17 31° E 20:53:45 10° NNE
Cosmos 1503 Rocket 4.2 20:46:19 10° NNW 20:51:39 85° WSW 20:57:07 10° SSE
Cosmos 1939 Rocket 3.6 20:48:40 10° SSE 20:52:11 30° E 20:55:39 10° NNE
YAOGAN 1 2.7 20:50:05 10° SSE 20:54:28 59° E 20:58:46 10° N
CZ-4C R/B 3.2 20:51:04 10° N 20:58:45 48° ENE 21:05:32 10° SE
Cosmos 1869 4.0 20:57:49 10° S 21:01:39 37° ESE 21:05:26 10° NE
FengYun 1-2 T 4.3 20:56:21 10° SSE 21:02:06 84° ENE 21:07:49 10° NNW
CSL-04 Rocket 3.8 20:57:13 10° SSE 21:02:46 64° ENE 21:08:19 10° N
Cosmos 1842 Rocket 4.1 21:00:33 10° SSW 21:04:55 62° W 21:09:15 10° N
Cosmos 2082 Rocket 3.9 21:05:23 11° ENE 21:06:24 11° E 21:08:11 10° ESE
GPS 2-04 Rocket1 4.5 21:05:57 10° NNW 21:07:41 13° NNE 21:09:00 11° NE
DELTA 2 R/B (1) 4.1 21:02:26 10° WNW 21:07:43 42° N 21:12:30 13° ENE
Cosmos 2221 2.7 21:04:26 10° S 21:08:52 80° W 21:13:12 10° N
Lacrosse 4 Rocket 3.6 21:08:29 10° S 21:11:16 16° SE 21:14:02 10° ESE
Cosmos 1892 4.1 21:11:34 14° NE 21:13:42 21° E 21:16:40 10° SE
BREEZE-M DEB (TANK) 2.5 21:14:32 10° WSW 21:16:49 37° S 21:19:46 10° ESE
Ariane Rocket 3.4 21:13:02 10° SSE 21:17:58 43° E 21:22:50 10° N
USA 229 DEB 3.7 21:12:07 10° SW 21:19:05 83° NW 21:25:18 12° NNE
USA 229 3.7 21:12:09 10° SW 21:19:09 84° NW 21:25:22 12° NNE
DMSP B5D2-2 4.2 21:14:05 10° NNE 21:19:20 82° WNW 21:24:40 10° SSW
Cosmos 1076 Rocket 3.4 21:15:20 10° N 21:19:37 74° E 21:23:58 10° SSE
Cosmos 2100 Rocket 4.0 21:13:53 10° N 21:19:59 62° E 21:26:13 10° SSE
Cosmos 1697 Rocket 3.8 21:15:01 10° S 21:20:01 30° SE 21:23:50 15° ENE
ERBS 4.5 21:17:29 10° SSW 21:20:03 19° SSE 21:22:37 10° ESE
BREEZE-M DEB (TANK) 3.7 21:17:49 10° WSW 21:21:36 71° SSE 21:34:08 11° E
NOAA 11 4.2 21:16:20 10° SSE 21:21:53 62° E 21:27:21 10° N
ATLAS CENTAUR R/B 3.7 21:06:42 10° NW 21:21:57 72° NE 21:27:21 10° SE
COSMOS 2406 3.4 21:18:42 10° N 21:24:12 51° ENE 21:29:43 10° SE
CZ-4 R/B 2.5 21:20:25 10° S 21:24:17 48° WSW 21:28:11 10° NW
Okean 3 Rocket 4.1 21:20:18 10° NNE 21:24:25 38° E 21:28:34 10° SSE
SL-8 R/B 4.1 21:19:55 10° W 21:24:46 64° S 21:29:32 11° E
NOSS 3-1 (A) 3.5 21:18:48 10° SW 21:25:24 70° SE 21:29:46 18° NE
Cosmos 2058 2.9 21:21:17 10° N 21:25:25 61° E 21:29:34 10° SSE
FREGAT/IRIS 3.4 21:23:44 10° SE 21:26:19 28° E 21:27:07 24° NE
Meteor 2-20 Rocket 4.4 21:20:42 10° S 21:26:56 78° E 21:33:03 10° NNE
MOS 1 Rocket 4.2 21:24:44 17° ENE 21:27:51 35° ESE 21:32:30 10° S
USA 186 2.9 21:28:02 10° SE 21:31:05 28° E 21:32:00 24° ENE
USA 215 4.1 21:26:26 10° ESE 21:31:41 25° NE 21:36:51 10° N
Cosmos 2369 4.4 21:28:02 10° SSW 21:33:25 39° SE 21:36:53 20° ENE
Cosmos 2016 Rocket 4.2 21:30:42 10° NNE 21:36:53 54° E 21:43:06 10° SSE
MONITOR-E 3.9 21:36:51 10° SSE 21:39:43 63° E 21:41:26 21° N
Cosmos 2151 3.4 21:36:44 17° NNE 21:39:46 43° E 21:43:52 10° SSE
NOSS 3-1 (C) 3.6 21:33:30 10° SW 21:39:54 67° WNW 21:44:19 17° NNE
SJ-6B 3.8 21:36:52 10° SSE 21:40:35 30° E 21:41:47 26° NE
CZ-2C R/B 2.7 21:39:35 10° N 21:44:50 78° WNW 21:50:06 10° SSW
BREEZE-M R/B 4.2 21:36:04 10° WSW 21:49:55 89° N 21:51:48 29° ENE
ISS -3.1 21:46:40 10° WNW 21:50:01 55° SSW 21:53:08 12° ESE
IRS-1A Rocket 4.2 21:45:30 10° SSE 21:51:20 71° ENE 21:56:58 10° N
Cosmos 1656 3.7 21:47:22 10° SSW 21:53:08 78° ESE 21:56:36 25° NNE
Cosmos 1408 3.4 21:57:07 31° E 21:57:07 31° E 22:00:12 10° SSE
Cosmos 2322 Rocket 4.4 21:55:40 10° S 21:58:18 13° SE 22:00:55 10° ESE
Cosmos 1356 Rocket 3.6 21:54:08 10° SSW 21:58:20 71° W 22:00:59 21° N
Cosmos 2278 4.1 21:57:56 10° SSW 22:03:30 48° ESE 22:05:57 30° ENE
HJ-1C 4.4 22:00:55 10° S 22:04:18 49° WSW 22:07:38 10° NNW
SPOT 3 Rocket 3.8 22:00:42 10° SSE 22:05:43 46° E 22:07:46 31° NNE
USA 267 4.2 22:02:05 13° E 22:07:30 42° SSE 22:13:39 10° SW
Cosmos 1459 Rocket 4.4 22:01:46 10° NNW 22:08:08 66° W 22:14:32 10° S
SJ-11-01 4.2 22:04:15 10° SSE 22:09:07 80° ENE 22:13:00 16° N
NOSS 2-3 (C) 4.4 22:02:41 10° SW 22:09:49 87° NW 22:12:33 33° NE
Cosmos 1980 Rocket 2.9 22:07:26 10° SSW 22:12:45 40° SE 22:14:45 30° E
Cosmos 2061 Rocket 4.1 22:06:51 10° N 22:13:06 80° W 22:19:32 10° S
Resurs 01 Rocket 2.9 22:11:10 10° SE 22:14:08 25° ESE 22:14:08 25° ESE
Cosmos 1833 Rocket 2.6 22:11:37 10° NNW 22:17:13 64° ENE 22:22:52 10° SSE
Cosmos 1680 Rocket 3.6 22:13:04 10° SSW 22:18:24 62° ESE 22:20:09 40° NE
Cosmos 1515 Rocket 3.7 22:16:00 10° S 22:20:25 55° ESE 22:21:09 49° ENE
H-2A R/B 2.0 22:16:22 10° SSE 22:21:21 59° E 22:23:03 39° NNE
Cosmos 1743 Rocket 4.1 22:22:33 40° E 22:22:33 40° E 22:26:36 10° SSE
Resurs 1-3 4.1 22:18:31 10° SSE 22:22:30 40° E 22:22:30 40° E
Tsikada Rocket 3.9 22:17:06 10° S 22:23:24 87° E 22:26:44 30° N
SJ 16-02 3.0 22:27:05 20° ESE 22:27:05 20° ESE 22:29:02 10° SE
Genesis I 4.1 22:22:27 10° SW 22:26:11 41° WNW 22:27:02 36° NNW
Mayak 0.0 22:30:32 28° ESE 22:30:32 28° ESE 22:34:06 10° S
EO 1 Del DPAF 3.4 22:29:46 53° NNW 22:30:29 67° WNW 22:34:21 10° SSW
Meteor 2-3 Rocket 4.2 22:30:36 40° ENE 22:31:19 42° E 22:36:43 10° SSE
Cosmos 923 Rocket 4.1 22:27:18 10° SSW 22:32:44 79° WNW 22:34:35 42° N
Cosmos 1151 Rocket 3.0 22:28:24 10° SSW 22:32:47 77° W 22:33:48 51° N
ATLAS CENTAUR Rocket 4.4 22:00:31 10° WNW 22:35:15 33° NNW 22:38:39 27° NNE
Cosmos 1606 3.3 22:34:53 10° S 22:38:19 48° SE 22:38:19 48° SE
Cosmos 1825 2.3 22:44:05 71° SSE 22:44:05 71° SSE 22:47:36 10° S
Meteor 1-26 Rocket 4.2 22:38:53 10° S 22:44:22 59° ESE 22:45:15 52° ENE
Thor Agena Rocket 3.8 22:45:27 39° NNW 22:47:12 61° WNW 22:52:18 10° SSW
CZ-4C R/B 3.7 22:39:48 10° WNW 22:47:29 51° SW 22:54:05 10° SSE
Cosmos 1238 Rocket 3.6 22:49:36 38° SSE 22:49:36 38° SSE 22:51:49 10° SSE
Cosmos 2082 Rocket 2.0 22:47:05 36° NNW 22:49:29 78° ENE 22:55:11 10° SSE
Lacrosse 4 Rocket 1.4 22:46:06 10° SSW 22:50:41 87° ESE 22:50:47 85° ENE
Cosmos 1328 Rocket 4.5 22:46:36 10° SSW 22:50:49 44° W 22:52:02 35° NW
ARGOS 3.1 22:45:21 10° SSE 22:50:50 87° WSW 22:52:58 39° NNW
DELTA 2 R/B (1) 4.2 22:48:22 10° WNW 22:53:16 41° NNW 22:53:16 41° NNW
Cosmos 1500 Rocket 3.5 22:56:33 76° SE 22:56:33 76° SE 23:00:41 10° S
ERBS 3.6 22:53:27 10° SW 22:55:50 41° SW 22:55:50 41° SW
Cosmos 2228 Rocket 3.0 22:52:32 10° S 22:57:10 88° E 22:57:11 87° E
Cosmos 2233 Rocket 4.1 22:55:04 29° NNW 22:58:30 76° W 23:04:52 10° S
Lacrosse 5 rocket 4.0 23:04:11 13° SE 23:04:11 13° SE 23:04:44 10° SE
Cosmos 1697 Rocket 3.2 22:58:44 10° SW 23:04:14 51° WNW 23:05:35 42° NNW
Cosmos 2360 4.2 23:00:33 10° SSW 23:06:18 73° WNW 23:07:12 61° N
SL-8 R/B 3.7 23:02:40 10° WSW 23:07:30 85° SSW 23:07:30 85° SSW
Cosmos 1933 3.9 23:04:20 10° SSW 23:08:06 55° WSW 23:08:06 55° WSW
USA 215 3.1 23:08:38 10° SE 23:15:17 82° NE 23:21:54 10° NW
SL-16 R/B 2.9 23:10:11 10° SSW 23:15:35 40° SE 23:16:05 39° ESE
CZ-2C R/B 3.4 23:13:03 10° S 23:18:21 69° WSW 23:19:45 49° NW
Cosmos 1898 Rocket 3.5 23:17:37 66° NW 23:18:21 79° WSW 23:23:45 10° SSE
Cosmos 2034 Rocket 4.2 23:25:25 54° E 23:25:25 54° E 23:31:37 10° SSE
ISS -1.3 23:24:09 10° WSW 23:26:03 24° SW 23:26:03 24° SW
Spot 2 Rocket 3.8 23:24:36 10° SSE 23:28:53 59° SE 23:28:53 59° SE
ERS-1 Rocket 4.4 23:26:53 10° SSE 23:29:38 26° SE 23:29:38 26° SE
Cosmos 1782 4.2 23:31:18 10° S 23:33:53 38° SSW 23:33:53 38° SSW
Meteor 2-6 Rocket 4.3 23:37:02 10° S 23:42:50 76° ESE 23:42:50 76° ESE
Cosmos 2322 Rocket 2.6 23:38:05 10° SSW 23:43:34 55° SE 23:43:34 55° SE
Meteor 1-27 Rocket 4.4 23:38:25 10° S 23:43:46 44° ESE 23:43:46 44° ESE
USA 267 3.1 23:49:25 74° ENE 23:50:07 89° SE 23:56:47 10° SW
Cosmos 2360 Rocket 3.3 23:45:48 10° SSW 23:50:59 34° SE 23:51:06 34° SE
Resurs 01 Rocket 3.0 23:47:25 10° S 23:51:31 35° WSW 23:51:44 35° WSW
Cosmos 1461 4.3 23:53:42 39° SSE 23:53:42 39° SSE 23:56:49 10° SSE
